Kalamata, Greece

10:45 AM EEST on March 28, 2017 (GMT +0300)
Kalamata Air Base

Weather History for LGKL - March, 2013

Change the Weather History Date:

Saturday, March 2, 2013

  Actual Average Record
Temperature  
Mean Temperature 50 °F -  
Max Temperature 60 °F 63 °F 69 °F (2008)
Min Temperature 41 °F 44 °F 32 °F (2012)
Degree Days  
Heating Degree Days 14    
Moisture  
Dew Point 43 °F    
Average Humidity 73    
Maximum Humidity 94    
Minimum Humidity 45    
Precipitation  
Precipitation 0.00 in 0.09 in - ()
Sea Level Pressure  
Sea Level Pressure 29.88 in    
Wind  
Wind Speed 2 mph ()    
Max Wind Speed 12 mph    
Max Gust Speed -    
Visibility 5.8 miles    
Events Rain , Thunderstorm    
Averages and records for this station are not official NWS values.
T = Trace of Precipitation, MM = Missing Value Source: Averaged Metar Reports

Daily Weather History Graph

Daily Weather History Graph

Search for Another Location

Airport or City:

Trip Planner

Search our weather history database for the weather conditions in past years. The results will help you decide how hot, cold, wet, or windy it might be!

Date:

Astronomy

Mar. 02, 2013 Rise Set
Actual Time 7:01 AM EET 6:27 PM EET
Civil Twilight 6:35 AM EET 6:53 PM EET
Nautical Twilight 6:05 AM EET 7:23 PM EET
Astronomical Twilight 5:35 AM EET 7:53 PM EET
Moon 11:37 PM EET (3/2) 9:24 AM EET (3/2)
Length of Visible Light 12h 17m
Length of Day
11h 25m
Waning Gibbous, 77% of the Moon is Illuminated
Mar 2
Waning Gibbous
Mar 4
Last Quarter
Mar 11
New
Mar 19
First Quarter
Mar 27
Full

Hourly Weather History & Observations

Time (EET) Temp. Windchill Dew Point Humidity Pressure Visibility Wind Dir Wind Speed Gust Speed Precip Events Conditions
12:50 AM 42.8 °F - 41.0 °F 93% 30.01 in 6.2 mi Calm Calm - N/A   Partly Cloudy
1:50 AM 44.6 °F - 42.8 °F 93% 30.01 in 6.2 mi Calm Calm - N/A   Partly Cloudy
2:50 AM 42.8 °F 40.1 °F 41.0 °F 93% 29.98 in 6.2 mi NNW 4.6 mph - N/A   Partly Cloudy
3:50 AM 42.8 °F 39.3 °F 41.0 °F 93% 30.06 in 6.2 mi NNW 5.8 mph - N/A   Partly Cloudy
4:50 AM 42.8 °F 39.3 °F 41.0 °F 93% 29.95 in 6.2 mi NNW 5.8 mph - N/A   Partly Cloudy
5:20 AM 41.0 °F - 39.2 °F 93% 29.95 in 6.2 mi Calm Calm - N/A   Partly Cloudy
5:50 AM 41.0 °F 38.0 °F 39.2 °F 93% 29.95 in 6.2 mi NW 4.6 mph - N/A   Partly Cloudy
6:20 AM 41.0 °F 38.0 °F 39.2 °F 93% 29.95 in 6.2 mi NNW 4.6 mph - N/A   Partly Cloudy
6:50 AM 42.8 °F - 39.2 °F 87% 29.92 in 3.7 mi Calm Calm - N/A   Partly Cloudy
7:20 AM 41.0 °F - 39.2 °F 93% 29.92 in 3.7 mi Calm Calm - N/A   Partly Cloudy
7:50 AM 42.8 °F - 39.2 °F 87% 29.92 in 3.7 mi Calm Calm - N/A   Scattered Clouds
8:20 AM 44.6 °F - 41.0 °F 87% 29.92 in 5.0 mi Calm Calm - N/A   Overcast
8:50 AM 46.4 °F - 42.8 °F 87% 29.92 in 5.0 mi Calm Calm - N/A   Overcast
9:20 AM 48.2 °F - 44.6 °F 87% 29.92 in 5.0 mi Calm Calm - N/A   Overcast
9:50 AM 51.8 °F - 44.6 °F 76% 29.92 in 5.0 mi Calm Calm - N/A   Mostly Cloudy
10:20 AM 55.4 °F - 44.6 °F 67% 29.92 in 6.2 mi Calm Calm - N/A   Overcast
10:50 AM 55.4 °F - 42.8 °F 63% 29.89 in 6.2 mi Calm Calm - N/A   Overcast
11:20 AM 57.2 °F - 42.8 °F 59% 29.89 in 6.2 mi Calm Calm - N/A   Mostly Cloudy
11:50 AM 59.0 °F - 41.0 °F 51% 29.89 in 6.2 mi Calm Calm - N/A   Mostly Cloudy
12:20 PM 60.8 °F - 41.0 °F 48% 29.86 in 6.2 mi Calm Calm - N/A   Mostly Cloudy
12:50 PM 60.8 °F - 39.2 °F 45% 29.86 in 6.2 mi SW 4.6 mph - N/A   Mostly Cloudy
1:20 PM 60.8 °F - 41.0 °F 48% 29.86 in 6.2 mi SSW 4.6 mph - N/A   Mostly Cloudy
1:50 PM 60.8 °F - 42.8 °F 52% 29.83 in 6.2 mi SSW 5.8 mph - N/A   Mostly Cloudy
2:20 PM 60.8 °F - 42.8 °F 52% 29.83 in 6.2 mi SSW 5.8 mph - N/A   Mostly Cloudy
2:50 PM 60.8 °F - 42.8 °F 52% 29.83 in 6.2 mi SSW 9.2 mph - N/A   Mostly Cloudy
3:20 PM 60.8 °F - 44.6 °F 55% 29.83 in 6.2 mi SSW 5.8 mph - N/A   Mostly Cloudy
3:50 PM 59.0 °F - 44.6 °F 59% 29.83 in 6.2 mi South 9.2 mph - N/A   Overcast
4:20 PM 59.0 °F - 44.6 °F 59% 29.83 in 6.2 mi South 9.2 mph - N/A   Overcast
4:50 PM 59.0 °F - 44.6 °F 59% 29.83 in 6.2 mi South 8.1 mph - N/A   Overcast
5:20 PM 59.0 °F - 44.6 °F 59% 29.83 in 6.2 mi South 5.8 mph - N/A   Overcast
5:50 PM 57.2 °F - 44.6 °F 63% 29.83 in 6.2 mi SE 4.6 mph - N/A   Overcast
6:20 PM 57.2 °F - 46.4 °F 67% 29.83 in 6.2 mi ENE 4.6 mph - N/A   Light Drizzle
6:50 PM 55.4 °F - 46.4 °F 72% 29.80 in 6.2 mi Calm Calm - N/A   Overcast
7:20 PM 55.4 °F - 46.4 °F 72% 29.80 in 6.2 mi Calm Calm - N/A   Overcast
7:50 PM 55.4 °F - 46.4 °F 72% 29.80 in 6.2 mi Calm Calm - N/A   Overcast
8:50 PM 55.4 °F - 46.4 °F 72% 29.77 in 6.2 mi Calm Calm - N/A   Overcast
9:50 PM 53.6 °F - 46.4 °F 77% 29.77 in 6.2 mi Calm Calm - N/A   Light Drizzle
10:50 PM 51.8 °F - 48.2 °F 88% 29.77 in 5.0 mi NW 11.5 mph - N/A Rain , Thunderstorm Thunderstorms and Rain
11:50 PM 50.0 °F - 48.2 °F 94% 29.80 in 5.0 mi North 4.6 mph - N/A Rain , Thunderstorm Thunderstorms and Rain